Hoquiam, WA
on Thursday, December 6, 2012

Thursday
Previous Day Next Day
Daily Summary
 ActualAverageRecord
Temperature
Mean Temperature °F 42°F  
Max Temperature 48°F 47°F 56°F (1965)
Min Temperature 43°F 37°F 20°F (1972)
Degree Days
Heating Degree Days 20 23  
Month to date heating degree days 136  
Cooling Degree Days 0 0  
Month to date cooling degree days 0  
Year to date cooling degree days 23  
Moisture
Dew Point 43°F   
Average Humidity 88    
Maximum Humidity 93    
Minimum Humidity 82    
Precipitation
Precipitation 0.40 in 0.33 in 1.67 in (1970)
Month to date precipitation 2.05  
Year to date precipitation 59.64  
Wind
Wind Speed 9 mph   
Max Wind Speed 23 mph   
Max Gust Speed 30 mph   
Visibility 8 miles   
Events Rain   

Key: T is trace of precipitation, MM is missing value
Source: NWS Daily Summary
Time(PST)TemperatureDew PointHumidity Pressure Visibility Wind DirectionWind SpeedGust SpeedPrecipitationEvents Conditions
12:53 AM 44.1°F 41.0°F 89% 30.19 in 10.0 miles SSE 10.4 mph - N/A   Mostly Cloudy
1:21 AM 44.6°F 41.0°F 87% 30.18 in 10.0 miles South 5.8 mph - N/A   Overcast
1:42 AM 44.6°F 41.0°F 87% 30.18 in 10.0 miles SSE 8.1 mph - N/A   Overcast
1:53 AM 45.0°F 42.1°F 90% 30.19 in 10.0 miles SSE 8.1 mph - N/A   Overcast
2:22 AM 44.6°F 42.8°F 93% 30.18 in 10.0 miles Calm Calm - N/A   Overcast
2:30 AM 44.6°F 42.8°F 93% 30.18 in 10.0 miles Calm Calm - N/A   Overcast
2:53 AM 45.0°F 41.0°F 86% 30.19 in 10.0 miles Variable 3.5 mph - 0.02 in Rain Light Rain
3:53 AM 45.0°F 41.0°F 86% 30.17 in 10.0 miles SE 5.8 mph - 0.00 in   Mostly Cloudy
4:53 AM 45.0°F 42.1°F 90% 30.16 in 8.0 miles South 8.1 mph - N/A   Mostly Cloudy
5:53 AM 46.0°F 42.1°F 86% 30.14 in 10.0 miles South 10.4 mph - 0.01 in   Overcast
6:53 AM 46.9°F 43.0°F 86% 30.13 in 10.0 miles South 10.4 mph - 0.00 in   Overcast
7:53 AM 46.0°F 43.0°F 89% 30.12 in 10.0 miles South 9.2 mph - 0.01 in   Overcast
8:53 AM 48.0°F 43.0°F 83% 30.13 in 10.0 miles SSW 19.6 mph - 0.01 in   Overcast
9:53 AM 46.9°F 44.1°F 90% 30.13 in 8.0 miles SW 18.4 mph 26.5 mph 0.01 in Rain Light Rain
10:27 AM 44.6°F 41.0°F 87% 30.12 in 2.5 miles WSW 10.4 mph 27.6 mph 0.08 in Rain Light Rain
10:34 AM 44.6°F 42.8°F 93% 30.12 in 10.0 miles WSW 8.1 mph - 0.08 in Rain Light Rain
10:41 AM 46.4°F 42.8°F 87% 30.12 in 10.0 miles WSW 6.9 mph - 0.08 in   Overcast
10:53 AM 46.9°F 43.0°F 86% 30.13 in 8.0 miles WSW 11.5 mph 20.7 mph 0.08 in Rain Light Rain
11:53 AM 48.0°F 44.1°F 86% 30.12 in 10.0 miles SW 13.8 mph - 0.02 in   Overcast
12:07 PM 46.4°F 44.6°F 93% 30.11 in 2.5 miles SW 23.0 mph 29.9 mph 0.04 in Rain Rain
12:16 PM 46.4°F 42.8°F 87% 30.10 in 3.0 miles SW 16.1 mph - 0.05 in Rain Light Rain
12:33 PM 46.4°F 42.8°F 87% 30.10 in 2.5 miles WSW 15.0 mph - 0.09 in Rain Rain
12:40 PM 46.4°F 42.8°F 87% 30.10 in 6.0 miles SW 17.3 mph - 0.09 in Rain Light Rain
12:53 PM 46.0°F 43.0°F 89% 30.10 in 4.0 miles SW 15.0 mph - 0.11 in Rain Rain
1:07 PM 46.4°F 44.6°F 93% 30.09 in 7.0 miles WSW 13.8 mph 24.2 mph 0.01 in Rain Light Rain
1:30 PM 48.2°F 42.8°F 82% 30.09 in 10.0 miles WSW 12.7 mph - 0.02 in Rain Light Rain
1:53 PM 48.0°F 44.1°F 86% 30.10 in 10.0 miles WSW 13.8 mph - 0.02 in   Overcast
2:18 PM 46.4°F 42.8°F 87% 30.08 in 2.0 miles West 18.4 mph 26.5 mph 0.04 in Rain Rain
2:36 PM 46.4°F 42.8°F 87% 30.09 in 6.0 miles WSW 12.7 mph - 0.07 in Rain Light Rain
2:53 PM 46.0°F 44.1°F 93% 30.10 in 5.0 miles WSW 17.3 mph - 0.08 in Rain Light Rain
3:01 PM 46.4°F 44.6°F 93% 30.09 in 10.0 miles WSW 12.7 mph 23.0 mph 0.00 in   Overcast
3:53 PM 45.0°F 43.0°F 93% 30.12 in 10.0 miles WSW 3.5 mph - 0.00 in   Mostly Cloudy
4:53 PM 46.0°F 43.0°F 89% 30.12 in 10.0 miles West 5.8 mph - N/A   Overcast
5:53 PM 45.0°F 41.0°F 86% 30.12 in 10.0 miles WSW 5.8 mph - 0.03 in Rain Light Rain
6:53 PM 45.0°F 42.1°F 90% 30.13 in 10.0 miles WSW 4.6 mph - 0.00 in   Mostly Cloudy
7:53 PM 43.0°F 41.0°F 93% 30.14 in 10.0 miles Calm Calm - N/A   Mostly Cloudy
8:53 PM 46.0°F 42.1°F 86% 30.14 in 10.0 miles West 4.6 mph - N/A   Partly Cloudy
9:53 PM 46.9°F 42.1°F 83% 30.14 in 10.0 miles SSW 10.4 mph - N/A   Scattered Clouds
10:53 PM 46.0°F 42.1°F 86% 30.14 in 10.0 miles South 10.4 mph - N/A   Mostly Cloudy
11:53 PM 46.0°F 43.0°F 89% 30.12 in 10.0 miles South 9.2 mph - 0.00 in   Overcast
Moon Phase
Dec. 06 Dec. 13 Dec. 20 Dec. 28 Jan. 04
Sunrise:07:47 AM (PST) Moon Rise:No Moon Rise/
Sunset:04:26 PM (PST) Moon Set:12:19 PM (PST)12/6

Copyright © 2014 The Weather Underground, Inc.